Theta_e
325 325 325 325 325 325 325 325 326 326 326 326 325 325 325 325 325 325 325 324 324 324 324 324 323 323 323 323 324 323 323 323 323 322 322 323 324 324 324 324 324 323 322 321 321 321 320 319 318 317 316 316 315 314 314 313 313 314 314 315 316 317 318 319 319 319 319 318 317 316 316 315 315 314 314 313 313 312 311 311 310 309 309 308 308 309
325 325 325 325 325 325 325 325 325 326 326 326 326 326 326 326 326 326 326 325 325 324 324 324 323 323 322 322 322 322 322 323 323 322 322 323 324 324 324 324 323 322 321 320 321 320 319 318 317 316 316 315 315 314 314 313 314 314 314 315 316 317 318 318 318 318 318 317 316 316 315 314 314 314 313 313 312 311 311 310 309 309 308 308 308 309
325 325 325 325 325 325 325 325 325 326 326 326 326 326 326 326 326 326 326 326 325 324 324 323 322 322 321 321 321 321 321 322 322 323 323 323 323 323 323 323 322 321 320 320 320 320 319 317 317 316 316 315 314 314 313 314 314 314 315 315 316 317 317 317 317 317 317 316 316 315 314 314 313 313 313 312 312 311 310 309 309 308 308 308 309 309
325 325 325 325 325 325 325 325 325 325 325 326 326 326 326 325 325 325 325 325 324 324 323 322 322 321 320 320 320 320 320 321 322 322 323 323 323 323 322 322 321 320 319 320 320 320 318 317 316 316 316 315 314 314 313 313 314 315 315 315 316 317 317 317 317 317 316 316 315 315 314 314 313 313 312 312 311 310 310 309 309 309 309 309 309 309
324 324 325 325 324 324 325 325 325 325 325 325 325 325 324 324 324 324 324 323 323 322 322 321 320 320 319 319 319 319 320 320 321 322 322 323 322 322 321 321 320 319 319 319 320 319 318 317 316 316 316 315 314 314 313 313 315 315 315 315 316 317 316 316 316 316 316 315 315 314 314 314 313 313 312 312 311 310 309 309 309 309 309 310 310 309
324 324 324 324 324 324 324 324 325 324 324 324 324 323 323 323 323 322 322 321 321 320 320 320 319 319 319 319 319 319 319 320 320 321 322 322 322 321 320 320 319 318 318 319 319 318 317 316 316 316 315 315 314 313 313 313 314 316 315 315 316 316 316 316 315 315 315 314 314 313 313 313 313 313 312 311 311 310 309 309 309 310 310 310 308 307
323 323 324 323 323 323 323 323 323 323 323 322 322 322 322 321 321 320 320 320 319 319 319 318 318 318 318 318 318 318 318 319 319 320 321 321 321 320 319 318 317 317 318 319 318 317 317 316 316 316 315 314 314 314 313 313 314 315 316 315 315 315 315 315 315 314 314 313 313 312 312 312 312 312 311 311 310 310 310 309 310 310 310 308 307 304
322 322 322 322 322 322 322 322 322 322 322 321 320 320 320 319 319 319 319 318 318 318 317 317 317 317 317 317 317 317 317 318 318 319 320 321 320 319 318 317 316 317 318 318 318 317 316 316 316 316 315 314 314 314 313 312 313 314 315 315 315 315 315 315 314 314 313 313 313 312 311 311 311 311 311 310 310 310 310 310 310 309 308 306 304 302
322 321 321 321 321 321 321 321 321 321 321 320 319 318 318 317 317 317 317 317 316 316 316 315 315 315 315 316 316 316 316 317 318 318 319 319 319 318 317 316 316 317 318 318 317 316 316 316 316 316 315 314 314 314 313 313 312 312 314 314 314 314 314 314 314 313 313 313 313 312 312 311 311 310 310 310 310 310 310 309 309 307 306 304 302 300
321 321 320 320 320 320 319 319 319 320 319 319 318 318 317 316 316 315 314 314 314 314 314 314 314 314 314 315 315 315 316 316 317 318 318 318 317 316 315 315 315 317 317 317 316 316 316 316 316 316 315 314 314 314 313 313 312 312 312 313 313 313 313 313 313 313 313 312 312 312 311 311 310 310 310 310 309 309 309 308 307 306 304 302 300 298
320 320 319 319 318 318 318 318 318 318 318 317 317 317 316 316 315 314 313 312 313 313 313 313 313 313 314 314 314 315 316 316 317 317 317 317 316 315 314 315 315 316 317 316 316 316 316 316 316 315 315 314 314 313 313 312 312 311 311 311 312 312 312 312 312 312 312 312 312 311 311 310 310 310 309 309 309 308 308 307 306 304 303 301 299 297
319 319 319 318 317 316 316 316 316 316 315 314 313 313 313 314 314 313 313 312 312 312 312 312 312 313 313 314 314 315 315 316 316 315 315 314 314 314 313 314 314 315 316 316 316 316 316 316 315 315 314 313 313 313 312 312 311 311 310 310 311 311 311 311 311 311 311 311 311 311 310 310 309 309 308 308 308 307 307 306 305 304 302 300 298 296
319 318 318 317 316 315 314 314 313 312 312 311 311 312 312 312 312 312 312 313 313 312 311 312 312 312 313 313 314 315 315 315 314 314 313 312 312 312 312 312 313 313 313 314 315 315 315 315 314 313 313 312 312 312 311 311 310 310 309 309 310 310 311 311 311 311 311 311 311 310 310 309 309 308 307 307 307 306 306 305 304 303 302 300 298 296
318 317 316 315 313 313 312 311 310 309 310 310 311 312 313 312 312 311 311 312 312 312 311 311 311 312 312 313 314 314 314 313 313 312 312 312 312 312 312 311 311 311 312 312 312 312 312 312 312 311 311 311 311 311 310 310 309 309 309 308 309 309 309 310 310 311 310 310 310 309 309 308 308 307 306 306 306 306 305 305 304 302 301 300 298 296
316 315 314 313 312 312 311 310 310 310 311 311 311 312 312 312 311 311 311 311 311 311 310 310 311 311 311 312 313 313 313 312 312 311 311 311 311 311 311 310 310 310 311 311 310 309 309 310 310 309 310 310 310 310 309 308 308 308 307 308 308 308 308 309 309 310 310 309 309 308 307 307 306 306 305 305 305 305 304 304 303 302 301 300 298 296
315 314 313 313 313 312 312 311 310 311 311 311 311 311 311 311 310 310 310 310 310 309 309 308 308 309 309 311 312 312 312 311 311 310 310 310 310 310 310 310 309 309 310 310 309 308 308 308 309 309 309 309 309 309 308 307 307 307 307 307 307 307 307 308 309 309 309 308 307 307 306 306 305 305 305 305 304 304 304 303 302 302 301 300 299 297
315 314 313 313 313 313 313 312 311 311 311 311 310 310 310 310 310 310 310 310 309 308 308 308 308 308 308 309 310 311 311 310 310 309 308 308 308 309 309 309 309 308 308 308 308 308 307 308 308 309 309 309 308 308 307 307 306 306 306 306 306 306 307 307 308 308 308 307 307 306 306 305 305 305 304 304 304 303 303 303 302 302 301 300 299 297
315 314 313 313 313 313 313 312 311 311 311 310 310 309 310 310 310 310 309 309 308 307 308 309 309 310 310 308 308 309 310 310 309 307 306 306 306 307 308 308 308 308 307 307 307 307 308 308 309 309 309 309 308 307 306 306 305 305 305 305 305 306 307 307 307 307 307 307 306 306 305 305 304 304 304 303 303 303 302 302 302 301 301 300 299 297
315 314 314 313 314 314 313 312 311 311 310 310 309 309 309 309 309 309 309 308 308 308 308 309 310 310 311 310 309 308 309 309 308 306 305 303 304 305 306 307 307 307 307 306 307 307 308 308 309 309 309 308 307 306 306 305 305 304 304 304 305 305 306 306 306 306 306 306 305 305 304 304 303 303 302 302 302 302 302 301 301 301 300 300 299 297
315 315 314 314 314 314 313 312 312 311 310 310 309 309 308 308 308 308 308 308 308 308 309 309 309 310 311 310 309 308 308 308 307 306 304 301 301 303 304 305 305 305 305 305 306 307 307 308 308 308 308 307 306 306 305 305 304 304 303 303 304 304 304 305 305 305 305 304 304 303 303 302 302 302 301 301 301 301 301 300 300 300 300 299 298 296
315 315 314 314 314 314 313 313 312 312 311 310 309 309 308 308 308 308 308 308 308 308 308 309 309 310 310 309 308 307 308 307 306 305 303 300 299 300 303 304 304 304 303 303 304 306 306 307 307 307 306 306 305 305 305 304 304 303 302 302 302 303 303 304 304 304 303 303 303 302 302 301 301 301 300 300 300 300 300 299 299 299 299 298 297 295
315 315 315 314 314 314 314 313 313 312 312 311 309 308 308 308 307 307 307 307 307 307 308 309 309 310 309 308 307 307 307 307 306 305 302 299 297 298 301 303 303 303 302 302 303 304 305 305 305 305 305 305 304 304 304 304 303 302 301 301 301 302 302 302 303 303 303 302 302 302 301 301 301 300 300 300 299 299 299 299 298 298 298 296 295 293
315 315 315 315 314 314 314 314 313 313 312 311 310 310 309 308 308 307 307 307 307 307 308 308 308 308 308 308 307 306 306 306 306 304 302 299 297 297 299 301 302 302 300 300 301 302 303 303 303 303 303 303 303 303 303 303 302 301 301 300 300 300 301 301 301 302 302 301 301 301 301 301 300 300 299 299 299 298 298 298 297 297 296 294 293 291
314 315 315 315 314 314 314 314 313 313 312 311 311 311 310 309 309 308 308 307 307 307 307 306 306 306 306 306 305 305 304 304 304 304 303 301 299 297 298 300 301 300 298 299 300 301 301 301 302 302 301 301 301 302 302 302 301 300 300 299 299 299 299 300 300 301 301 301 300 300 300 300 300 299 299 298 298 298 297 297 296 295 294 292 291 290
314 314 314 315 315 314 314 314 314 313 313 312 311 310 310 309 308 308 307 307 306 306 305 305 304 303 302 302 303 303 303 303 303 304 303 301 298 296 297 299 299 298 296 297 298 299 300 300 300 300 300 300 300 300 300 300 300 299 299 298 298 297 298 298 299 299 299 300 300 299 299 299 299 298 298 297 297 297 296 296 294 293 291 290 289 289
313 313 314 314 314 314 315 314 314 314 313 313 311 310 309 308 307 307 306 306 305 304 303 303 302 301 300 301 301 302 302 303 303 303 303 300 296 294 296 298 298 297 295 295 296 297 298 298 298 299 298 298 298 298 298 298 298 298 297 297 296 296 296 296 296 297 297 298 298 298 298 298 297 297 297 296 296 295 295 294 292 291 290 289 289 289
312 312 313 313 314 314 314 314 314 314 314 313 312 310 309 308 306 305 304 304 303 303 303 303 302 300 299 300 301 301 302 302 302 303 302 300 297 294 295 296 297 295 293 293 294 296 296 296 297 297 297 297 296 296 296 296 296 296 296 296 295 294 294 294 294 295 295 295 296 296 296 296 296 296 295 295 294 294 293 292 291 290 290 291 292 292
311 311 312 312 313 313 313 314 314 314 313 313 312 310 308 307 306 304 303 303 303 303 304 304 303 301 300 300 300 300 301 301 302 302 302 300 298 295 294 295 295 294 293 292 292 293 294 295 295 295 295 295 295 294 294 294 294 294 294 294 294 293 292 292 292 292 292 293 293 294 294 294 294 294 294 293 293 292 292 291 291 291 291 293 294 296
310 310 311 311 312 312 313 313 313 313 313 312 311 310 309 307 306 305 304 303 303 303 304 304 303 302 301 300 300 299 299 300 301 301 301 300 298 296 294 294 294 293 292 291 290 291 292 292 293 294 294 293 293 293 293 293 292 292 293 293 292 292 291 291 290 290 291 291 291 291 292 293 293 293 292 292 291 291 291 291 292 293 294 295 297 298
309 310 310 311 311 311 312 312 312 312 311 311 310 310 309 308 307 307 306 304 303 303 304 304 303 301 300 299 298 298 298 299 300 300 301 300 298 295 293 293 293 293 292 291 290 290 290 290 291 292 292 292 292 292 292 292 292 292 292 292 292 291 291 290 290 290 290 290 290 290 291 291 292 292 291 291 291 290 291 292 293 295 296 297 298 299
309 309 310 310 311 311 311 311 311 311 310 309 309 309 308 308 307 307 306 305 304 304 304 304 303 301 300 300 299 299 299 298 299 300 301 300 297 294 293 293 292 293 293 294 293 292 290 289 290 291 292 292 292 292 292 293 293 293 292 292 292 292 291 290 290 289 289 290 290 290 290 291 291 291 291 290 290 291 292 293 294 296 298 298 299 299
308 309 309 310 310 310 310 310 310 309 309 308 308 308 308 307 307 306 306 305 304 304 305 304 302 301 300 301 301 301 301 299 298 299 301 300 297 294 294 293 292 293 294 296 297 296 294 291 289 289 291 292 292 292 292 293 293 293 293 292 292 292 291 290 290 290 290 290 290 291 291 291 291 291 291 291 291 291 292 293 295 296 298 299 299 299
308 308 309 309 309 309 309 309 309 308 308 307 307 306 307 307 307 306 306 305 305 305 304 304 302 301 301 301 302 303 302 300 299 299 300 299 296 294 294 293 293 293 294 296 297 297 296 293 290 289 290 291 292 292 292 293 293 293 293 293 292 292 291 291 290 290 291 291 291 291 291 292 292 291 291 291 291 292 293 294 295 296 298 299 299 300
307 308 308 308 308 308 308 308 308 307 307 306 306 306 306 306 306 306 305 305 305 305 305 304 302 301 301 302 302 302 301 300 300 300 300 300 297 295 294 294 294 293 294 295 296 296 295 293 291 290 289 289 290 292 292 293 293 293 293 293 293 292 292 291 291 291 291 292 292 292 292 292 292 292 291 291 292 292 293 294 295 296 297 298 299 299
307 307 307 307 307 307 307 307 307 307 306 306 306 306 305 305 305 305 305 305 305 305 305 304 303 303 302 302 303 302 300 300 300 300 301 301 299 297 295 295 294 294 294 295 295 295 293 293 292 291 290 289 289 290 292 292 293 293 293 293 293 293 292 292 291 291 291 292 292 292 292 292 292 292 292 292 292 293 293 293 294 295 296 297 298 298
306 306 306 307 307 306 306 306 306 306 306 306 305 305 305 305 305 305 305 305 305 305 304 304 304 303 303 303 303 303 301 301 300 300 301 301 301 299 297 296 295 295 295 295 295 295 294 293 292 292 291 290 289 289 290 291 292 293 293 293 293 293 293 292 291 291 291 292 292 293 293 292 292 292 292 292 292 292 293 293 294 295 296 297 297 298
305 306 306 306 306 306 306 306 306 305 305 305 305 305 305 305 305 305 305 305 304 304 304 304 304 303 303 303 304 304 303 302 301 301 300 301 301 300 298 297 296 296 296 296 296 296 295 293 292 292 292 291 291 290 289 290 291 292 292 292 292 292 292 292 291 291 291 292 292 292 292 292 292 292 292 292 292 292 293 293 293 294 295 296 297 297
305 305 305 305 305 305 305 305 305 305 305 305 305 305 305 305 305 304 304 304 304 304 304 304 304 303 303 303 304 304 304 303 302 301 301 301 301 301 299 297 296 296 297 297 297 296 296 294 294 293 293 293 292 291 290 289 290 290 291 292 292 292 292 292 291 291 291 291 292 292 292 292 292 292 292 292 292 292 292 292 293 293 294 295 296 296
305 305 305 305 305 305 305 305 305 305 305 305 305 305 305 304 304 304 304 304 304 303 304 304 304 304 303 303 303 304 304 303 303 302 301 301 301 301 300 298 297 296 297 297 298 297 297 296 296 295 294 294 293 291 290 289 289 290 290 290 291 292 292 291 291 290 290 291 292 292 292 292 292 292 291 291 292 292 292 292 292 292 293 294 294 295
305 305 305 305 305 305 305 305 305 305 305 305 305 304 304 304 303 303 303 303 303 303 303 304 304 304 303 303 303 303 304 303 303 302 301 301 301 301 301 300 298 297 297 298 298 298 298 298 297 296 296 295 294 292 290 289 289 289 289 289 290 290 291 291 290 290 290 291 291 292 292 292 292 292 291 291 291 291 292 292 292 292 292 293 293 294
304 305 305 305 305 305 305 305 305 305 305 304 304 303 303 303 302 302 302 302 302 302 303 303 303 303 303 303 303 303 303 303 302 302 301 301 301 301 301 301 300 299 298 297 297 297 298 298 297 297 296 295 294 292 291 290 289 289 289 289 289 290 290 291 290 290 290 290 291 291 292 292 292 292 291 291 291 291 291 291 291 291 291 292 292 293
304 304 304 305 305 305 305 305 305 305 304 304 303 303 302 302 301 301 301 301 301 301 302 302 302 302 302 302 302 302 302 302 301 301 301 301 301 301 301 301 301 299 298 297 297 297 297 297 297 296 296 295 294 292 291 290 290 290 290 290 290 290 290 290 290 290 290 290 290 291 291 291 291 291 291 291 291 291 291 291 291 291 291 291 291 292
304 304 304 304 304 304 304 304 304 304 303 303 302 302 301 301 301 300 300 299 299 300 300 301 301 301 300 299 299 299 300 300 300 300 300 300 300 300 300 301 300 299 298 297 296 296 296 296 296 296 295 295 293 292 291 290 290 290 290 290 290 289 289 289 289 290 290 290 290 290 291 291 291 291 291 291 291 291 291 291 291 291 290 290 291 291
303 304 304 304 304 304 304 304 303 303 302 302 301 301 301 300 300 300 299 299 299 299 299 299 300 299 298 296 296 296 297 298 298 298 299 299 299 299 299 300 299 299 299 298 296 295 295 295 295 295 295 294 293 292 291 290 290 290 290 290 290 290 290 290 289 289 289 289 290 290 290 290 291 291 291 291 291 291 291 291 291 291 290 290 290 290
303 303 303 303 303 303 303 302 302 302 301 301 301 300 300 300 299 299 299 299 298 298 298 298 298 297 296 294 293 293 294 295 296 297 297 297 298 298 298 299 298 298 298 298 297 296 295 295 294 294 294 293 293 292 291 290 290 290 290 290 290 290 290 290 289 289 289 289 289 289 290 290 290 291 291 291 291 290 290 291 291 291 291 290 289 289
302 302 303 302 302 302 301 301 301 300 300 300 300 299 299 299 299 299 299 298 298 297 297 298 298 298 296 294 292 292 292 293 293 294 295 295 296 296 297 298 298 297 297 297 297 296 296 295 295 294 293 292 292 292 291 291 290 290 290 290 290 290 290 290 289 289 289 289 289 289 289 289 290 290 290 290 290 290 290 290 290 291 291 290 289 289
302 302 301 301 301 300 300 300 300 299 299 299 299 298 298 298 298 298 298 298 297 297 297 297 298 298 297 295 293 292 292 291 292 293 293 294 294 295 295 296 296 296 296 296 296 296 296 296 295 294 293 292 291 291 291 290 290 290 290 289 289 289 289 289 289 289 289 289 289 289 289 289 289 289 289 289 290 290 290 290 290 291 291 290 290 289
301 301 300 300 299 299 299 299 299 299 298 298 298 298 297 297 297 297 297 297 297 297 296 297 298 298 296 295 294 293 293 292 292 292 292 292 293 293 294 294 295 295 295 295 295 295 295 295 294 294 294 293 292 291 290 290 290 290 290 289 289 289 289 289 289 289 289 289 289 289 289 289 289 289 289 289 289 289 289 290 290 290 291 291 290 289
301 300 300 299 298 299 299 298 298 298 298 298 297 297 296 296 297 297 297 297 297 297 297 297 298 297 296 294 293 293 293 293 292 292 292 292 292 292 292 293 293 293 293 293 293 293 293 293 293 293 293 293 293 292 291 290 290 290 290 289 289 289 289 288 288 288 289 289 289 289 289 289 289 289 289 288 288 288 289 289 290 290 290 290 290 289
300 300 299 298 298 298 298 298 298 298 298 298 297 296 295 295 296 296 297 297 297 297 297 298 298 297 296 294 293 293 293 292 292 292 291 291 291 291 291 292 292 292 292 291 291 292 292 292 292 292 292 293 292 292 291 290 290 290 289 289 289 289 289 288 288 288 288 288 288 288 288 289 289 289 288 288 288 288 288 288 289 290 290 290 290 289
300 299 298 298 298 298 298 297 297 298 298 298 296 295 295 295 295 296 296 296 296 297 297 298 298 297 296 294 293 293 293 292 292 292 291 290 290 291 291 291 291 291 290 290 289 289 290 290 290 290 290 291 292 292 291 290 289 289 289 289 289 289 288 288 288 288 288 288 288 288 288 288 288 288 288 288 288 288 287 287 288 288 289 290 290 289
Wind_Speed
22 24 25 25 26 27 29 31 31 31 32 33 33 33 33 34 34 35 35 34 34 35 36 37 38 39 40 41 42 42 42 41 40 41 42 42 43 44 44 45 45 45 45 45 44 42 40 36 32 28 26 24 22 20 19 20 20 19 17 16 16 18 20 23 27 29 30 29 28 28 27 27 26 26 26 25 24 22 21 19 18 17 15 12 9 6
21 23 24 25 26 27 29 31 32 32 32 33 34 35 35 36 36 37 37 37 37 37 38 38 39 39 40 41 41 41 41 41 41 42 43 44 44 44 44 44 45 46 45 45 44 42 39 35 31 28 26 24 23 21 20 21 20 20 19 18 18 20 22 25 28 30 31 30 29 29 28 28 27 27 26 26 24 22 20 19 18 16 14 12 10 7
19 21 23 25 26 27 29 30 31 32 32 33 34 34 35 36 37 38 38 38 39 39 39 39 39 39 40 40 40 40 40 40 41 42 45 46 46 45 44 45 46 46 46 45 43 41 37 34 30 28 26 25 23 22 21 21 21 21 20 20 20 22 24 26 28 30 32 32 31 30 30 29 29 28 26 25 24 22 20 19 18 17 15 13 11 9
18 20 23 25 26 28 29 30 31 31 32 32 32 33 34 35 36 37 38 38 38 39 40 40 39 39 39 39 39 39 39 39 40 42 44 47 47 47 46 46 47 47 47 45 43 40 36 33 30 28 27 25 24 22 22 22 23 23 22 22 23 24 25 27 28 28 29 30 30 30 29 28 27 26 25 24 23 22 21 20 19 17 15 13 11 9
18 20 22 23 24 26 29 28 29 29 29 30 30 31 32 33 35 37 37 38 37 38 38 39 38 38 38 38 38 39 39 39 39 41 43 46 48 48 47 47 48 48 48 46 43 39 35 32 30 28 27 26 24 23 23 23 24 25 24 24 25 26 26 27 27 27 27 27 27 27 26 26 25 25 25 24 23 22 21 20 19 17 15 13 10 8
17 18 19 20 21 22 24 24 24 25 25 26 27 28 29 32 34 35 36 36 36 36 37 37 37 37 37 37 38 38 38 38 39 40 42 45 47 47 47 48 48 49 48 45 41 37 34 32 30 29 28 26 25 24 24 25 26 27 27 27 27 27 27 27 27 27 27 27 26 26 25 25 25 25 25 25 24 23 22 20 18 16 14 11 9 8
14 15 15 16 17 18 19 19 20 21 22 23 23 25 27 29 31 33 34 35 35 35 35 36 36 36 36 36 36 37 37 37 37 39 41 44 46 47 47 48 48 48 46 43 39 36 34 32 31 29 28 27 26 25 25 26 27 28 29 28 28 28 28 28 28 28 28 27 26 26 25 26 26 26 26 25 24 23 21 20 17 15 12 10 8 8
13 14 14 15 16 17 17 18 19 20 20 21 21 23 25 27 29 30 31 32 33 33 33 33 33 33 34 34 34 35 35 35 35 36 39 43 45 46 46 47 47 46 44 40 37 35 34 32 31 30 29 28 27 26 26 27 27 28 29 29 29 29 29 29 29 29 29 28 27 26 26 26 26 26 25 24 23 22 20 18 15 12 10 9 9 10
14 14 16 17 17 17 18 20 21 21 21 21 21 21 22 24 26 27 28 29 30 30 30 29 29 30 32 32 32 32 33 33 33 34 37 41 43 45 45 45 45 44 41 38 35 34 33 32 31 30 29 28 27 27 27 27 28 28 29 29 29 29 29 29 30 30 29 29 28 27 27 26 26 25 24 23 21 20 18 15 13 10 9 9 10 11
17 16 16 17 18 18 18 19 21 23 22 22 22 22 22 21 21 21 22 24 26 27 27 26 26 27 28 29 29 29 29 29 30 33 37 41 43 44 44 44 43 42 39 36 34 33 32 31 31 30 29 28 28 27 28 28 28 29 29 29 29 28 28 28 28 29 29 29 28 28 27 26 25 24 22 21 20 18 16 13 11 10 10 11 11 12
16 16 16 16 17 19 20 20 21 22 22 22 23 24 24 23 21 18 17 19 21 22 22 23 23 24 25 25 25 25 24 25 28 31 36 39 42 43 43 43 42 40 38 35 33 32 31 31 30 30 29 28 28 28 28 28 28 28 29 29 29 28 27 26 26 27 28 28 28 28 27 25 24 22 21 19 18 16 14 12 11 11 12 12 12 12
15 15 14 14 14 16 19 21 22 22 21 19 18 19 22 24 24 20 17 17 18 18 18 19 20 22 22 22 22 22 23 25 28 31 33 36 38 40 41 40 40 38 36 34 32 31 31 31 30 30 29 29 28 28 27 27 27 27 28 29 29 29 28 26 25 26 27 27 27 27 26 25 23 21 20 18 17 15 14 13 12 12 13 13 13 13
15 14 13 14 14 14 16 18 18 18 18 17 16 16 17 21 22 21 20 19 18 18 18 18 19 20 21 21 22 22 24 26 29 31 32 34 35 37 37 37 36 36 35 33 32 31 31 31 30 30 29 28 27 27 26 26 26 26 27 28 29 29 28 27 26 26 27 27 27 27 26 24 23 21 20 19 17 16 15 14 13 13 13 13 12 12
14 14 13 13 14 15 15 16 15 15 16 18 18 18 17 18 19 20 20 19 19 18 18 18 18 19 20 21 23 24 26 28 29 31 31 32 34 35 36 35 34 35 34 33 32 31 31 31 31 30 28 27 26 25 24 24 24 25 25 26 27 27 27 27 27 27 27 28 28 27 26 25 23 22 21 19 18 17 16 15 14 14 13 12 12 12
13 12 11 10 11 13 15 16 16 17 18 19 19 19 18 17 17 18 18 17 17 17 17 17 18 18 18 21 24 26 28 29 30 30 29 31 33 34 35 34 34 34 34 33 32 31 31 31 31 29 28 26 24 23 23 23 23 23 24 24 25 25 26 26 27 28 28 28 28 27 26 25 24 23 22 21 19 18 17 16 15 15 14 12 12 12
13 12 11 11 12 14 16 17 18 18 19 19 19 18 17 16 17 17 18 16 15 15 15 14 13 13 15 20 25 28 29 30 30 29 29 29 31 33 34 34 34 33 33 33 32 31 31 31 30 28 26 24 23 22 22 22 22 22 22 23 23 23 24 26 27 28 29 29 28 27 26 25 24 23 22 21 20 19 18 17 16 15 14 13 11 11
14 13 13 13 14 16 18 18 19 19 19 18 18 19 19 18 18 18 17 17 16 15 14 13 9 5 7 14 22 28 31 30 30 29 29 29 30 31 33 34 34 34 33 33 33 32 31 30 29 27 25 24 22 21 21 21 21 21 22 22 22 23 23 25 27 28 28 28 28 27 26 25 24 23 22 21 20 19 18 17 16 16 15 13 12 11
15 15 15 14 15 16 17 18 19 19 19 18 18 19 20 20 19 18 18 18 17 15 15 15 12 8 6 9 18 27 32 31 29 28 27 27 28 31 33 34 35 35 35 34 34 33 32 30 28 27 25 24 22 21 21 21 21 21 21 22 22 22 23 24 25 26 27 27 26 26 25 24 23 22 21 20 19 18 18 17 17 16 15 14 12 11
16 17 17 17 17 17 18 18 19 20 19 19 18 18 18 19 19 18 19 19 19 18 17 16 15 15 13 14 20 29 33 32 30 27 25 24 26 30 32 34 36 36 35 35 34 34 32 31 29 27 26 24 23 22 21 21 21 21 21 22 22 23 23 23 24 24 25 24 24 23 23 22 21 20 19 19 19 18 18 18 17 17 16 14 13 12
17 18 19 19 19 18 18 19 21 21 20 20 19 18 17 18 18 19 19 19 20 21 20 18 17 17 17 17 22 30 35 33 29 26 24 22 25 28 32 34 35 36 35 35 35 35 33 32 30 28 27 25 24 23 22 21 21 21 22 22 23 23 23 23 23 23 23 22 22 21 21 20 19 19 19 19 19 19 18 18 18 17 16 15 13 12
18 19 21 22 20 18 18 21 23 24 22 21 19 19 18 18 18 18 19 20 20 20 20 18 18 18 18 18 24 32 36 34 29 24 21 20 23 27 31 34 35 35 34 35 35 35 34 33 32 30 28 27 25 24 23 22 22 22 22 22 23 23 23 23 23 22 22 21 21 20 20 19 19 19 19 19 19 19 19 18 18 17 16 15 14 13
20 21 23 24 23 22 22 22 23 24 23 22 22 21 19 19 18 19 20 20 20 20 19 19 19 19 19 20 27 34 37 35 30 25 21 17 18 23 30 33 34 34 33 34 35 35 34 33 32 31 29 28 27 26 25 24 23 23 23 23 23 24 24 24 24 23 22 22 21 21 20 20 20 20 20 20 20 19 19 18 18 17 16 15 14 14
24 24 24 25 26 26 26 25 24 23 23 23 24 23 22 21 21 21 21 21 21 21 20 19 18 18 18 21 27 33 36 35 32 28 23 16 16 22 30 33 33 32 31 32 34 34 34 33 32 31 30 29 28 27 26 25 25 24 24 24 24 24 24 24 24 24 23 23 22 22 22 22 21 21 21 21 20 20 19 18 17 17 16 15 14 15
27 27 26 26 28 29 28 27 26 25 24 24 24 24 24 23 23 22 22 22 22 22 21 20 17 15 16 20 26 31 34 32 30 28 24 18 19 24 29 32 31 28 27 31 33 34 33 32 31 30 29 28 28 28 27 26 26 25 25 25 25 25 25 25 25 24 24 24 23 23 23 23 22 22 21 21 21 20 19 18 17 16 15 15 14 16
27 28 28 29 30 30 30 29 28 28 27 25 24 24 24 23 22 21 21 22 22 22 20 17 14 13 15 20 24 29 33 31 29 27 24 18 18 24 30 31 29 26 25 29 32 33 33 31 30 29 29 28 27 27 27 27 26 26 26 26 26 25 25 25 25 25 25 24 24 23 23 23 22 22 21 21 20 20 18 17 17 16 15 14 15 17
27 28 29 30 31 32 32 31 31 30 29 27 26 25 24 24 22 21 20 21 21 21 19 15 12 12 15 18 21 26 31 30 29 27 24 19 18 22 27 29 28 26 25 28 31 32 31 31 30 29 28 27 26 26 27 27 27 26 26 26 26 26 26 25 25 25 25 25 24 24 23 23 22 22 21 20 20 19 18 17 16 15 14 14 16 18
26 26 27 29 30 32 32 33 32 31 30 29 27 26 26 25 23 21 20 21 22 22 19 13 9 8 12 14 17 23 30 31 29 27 26 24 22 21 24 27 28 26 26 27 29 30 30 29 29 29 28 27 26 25 26 26 26 26 26 26 26 26 26 26 26 26 25 25 24 24 23 23 22 22 21 21 19 18 17 16 15 14 14 14 16 19
26 26 26 27 29 31 32 33 33 32 31 29 28 27 26 27 24 21 20 22 23 23 20 15 9 6 8 12 16 22 29 31 29 27 27 27 23 20 24 27 27 27 25 25 25 26 27 27 28 29 28 27 26 25 24 25 25 25 25 25 25 25 26 26 26 26 25 25 24 24 23 23 22 22 21 20 19 18 16 15 15 14 15 16 17 19
27 26 26 27 28 30 31 32 32 32 31 30 29 28 28 28 26 24 24 25 25 22 20 19 16 12 11 13 16 20 25 28 29 29 29 26 22 21 26 27 28 27 25 23 20 19 20 23 26 28 27 27 26 25 24 23 24 24 24 24 25 25 25 26 26 26 25 24 24 23 23 23 22 22 21 20 19 17 16 16 16 16 17 18 19 21
27 27 27 27 29 30 31 31 31 31 30 29 29 30 30 29 28 27 28 28 26 23 21 20 18 16 15 14 12 11 15 23 28 30 31 25 20 21 27 27 28 28 27 21 14 9 11 17 23 26 27 27 26 26 25 24 24 24 24 24 24 24 25 25 25 25 24 24 23 23 22 22 22 22 21 20 19 18 17 17 18 18 19 20 21 23
27 27 28 28 29 30 31 31 30 30 29 29 29 30 31 31 30 28 29 30 29 26 23 20 18 18 18 13 7 5 8 20 28 31 31 26 21 22 28 26 27 30 31 24 12 4 6 11 18 24 27 27 27 27 26 26 26 26 26 25 24 24 24 25 25 24 24 23 23 23 22 22 22 21 21 20 19 19 19 19 20 21 21 23 24 26
26 27 27 27 28 29 29 29 29 29 29 29 30 32 33 33 32 30 30 32 31 29 25 22 20 21 23 19 14 10 12 23 30 32 33 26 23 26 30 27 26 29 32 27 19 10 7 8 14 21 26 26 27 27 27 27 27 27 27 27 26 25 25 25 25 24 24 23 23 23 22 22 21 21 20 20 20 20 20 22 23 23 23 25 27 29
25 25 26 26 26 27 28 28 28 28 29 30 31 33 34 34 34 33 33 34 33 32 28 25 23 23 23 24 21 19 20 27 33 36 34 28 24 25 28 28 27 27 29 25 21 16 12 12 15 20 23 25 27 28 28 28 28 28 28 28 28 27 26 26 26 25 24 24 23 23 22 22 21 21 21 21 21 21 22 23 24 24 24 26 29 31
25 25 25 24 25 26 27 28 28 29 30 31 32 34 35 35 35 35 35 35 35 34 32 30 28 26 24 23 21 20 21 29 37 40 36 32 28 26 28 27 26 26 26 22 18 16 15 18 20 19 19 23 26 28 29 29 29 29 29 29 29 28 27 27 27 27 26 25 25 24 23 22 22 21 21 22 22 22 23 24 26 25 24 26 29 32
24 24 24 24 25 25 26 27 28 29 30 32 33 34 35 36 36 36 36 36 37 36 35 34 34 33 30 26 22 20 21 31 40 43 40 37 34 31 30 28 28 27 25 22 18 15 14 18 21 21 18 19 22 25 28 30 30 30 30 30 30 30 29 29 30 29 28 27 27 26 25 25 24 23 23 23 23 23 24 25 26 26 25 25 28 31
23 23 24 24 25 25 26 27 28 29 30 32 34 35 35 36 37 38 38 38 38 38 37 36 36 36 35 32 28 26 29 36 42 44 43 41 39 35 31 29 31 31 27 23 20 18 15 17 20 21 20 17 17 20 26 30 31 31 30 30 30 30 30 31 31 31 31 30 29 28 28 27 26 25 25 24 23 23 24 25 27 27 25 25 27 30
22 22 23 24 25 25 26 26 27 29 30 32 34 35 36 37 38 38 39 38 38 39 38 36 35 35 35 33 31 31 35 40 44 46 46 43 41 38 32 31 33 34 30 25 22 20 19 17 17 18 18 17 17 18 22 28 31 31 31 31 31 31 30 31 32 32 32 32 31 30 30 29 28 27 26 25 23 23 23 24 26 27 26 25 25 28
21 21 22 23 24 25 26 26 27 29 30 32 34 35 36 37 38 39 39 38 38 39 39 37 35 35 34 32 29 30 34 39 44 47 48 45 43 39 33 32 34 35 33 29 27 24 21 18 15 13 14 17 19 20 24 28 30 30 30 31 32 31 31 31 32 33 33 33 32 32 31 30 29 28 27 25 24 23 23 24 25 26 26 25 24 25
19 20 21 23 24 25 26 26 27 29 31 32 34 36 37 37 38 39 38 38 38 38 38 37 35 34 34 32 29 28 30 35 41 47 49 48 45 41 36 34 34 34 33 31 28 27 25 22 18 15 15 16 17 19 24 28 30 30 31 30 31 31 32 32 32 33 33 33 33 33 32 31 31 30 28 27 27 26 26 26 26 27 27 26 25 24
21 21 22 23 25 26 26 27 28 30 31 32 33 35 35 35 35 36 36 37 37 37 37 36 35 34 33 32 29 28 28 33 39 45 49 49 47 43 39 37 36 36 35 31 28 27 25 24 22 22 21 20 19 20 21 26 29 30 30 26 25 27 32 33 33 33 34 34 34 34 33 33 32 31 29 29 28 28 28 28 28 27 27 27 26 25
21 21 21 22 24 26 28 29 30 30 31 31 32 32 33 34 33 33 34 34 35 35 36 34 32 31 30 29 27 26 26 30 36 43 47 49 48 45 41 39 38 37 36 32 30 28 26 24 22 21 21 21 21 21 22 25 28 30 30 26 25 27 31 33 34 34 34 34 34 35 35 34 33 32 30 30 30 30 30 31 30 28 27 28 28 27
22 22 22 22 23 26 28 29 29 29 30 31 31 32 33 34 34 34 33 33 33 33 33 32 29 27 25 24 23 23 24 29 35 41 45 48 47 45 42 39 38 37 36 33 30 28 26 24 22 21 20 21 20 19 20 23 27 29 29 27 26 26 27 30 33 33 33 33 34 35 35 34 33 31 30 30 31 31 31 31 31 29 28 28 29 29
23 23 23 23 24 26 28 28 29 29 29 30 31 32 34 35 36 35 34 33 33 33 33 32 30 28 25 23 22 23 25 29 34 39 43 45 45 44 41 39 37 37 36 33 29 26 25 23 22 21 21 22 21 20 19 21 24 26 27 27 26 23 19 24 30 33 31 31 33 35 35 34 32 30 29 31 32 32 31 31 31 30 29 29 30 31
23 23 23 24 25 26 27 28 28 29 29 30 30 31 33 36 36 36 35 33 33 33 33 31 30 28 25 22 22 23 26 29 33 37 40 42 42 41 40 38 36 36 36 33 29 26 24 22 20 20 22 22 22 21 20 21 23 25 27 28 28 26 22 24 29 33 31 29 30 32 32 32 32 31 31 32 32 32 32 31 31 31 30 30 31 32
24 24 24 24 24 25 26 28 28 28 29 31 31 31 32 35 36 35 34 33 32 32 32 32 29 24 19 19 20 23 25 28 31 34 36 37 38 38 37 36 35 34 34 32 30 28 25 23 21 21 22 22 22 21 21 22 23 25 26 27 28 27 26 26 30 34 32 29 29 29 30 31 32 32 31 32 32 32 33 32 32 31 31 30 31 32
24 23 23 23 24 25 25 27 27 27 28 28 29 31 32 34 34 34 34 33 32 31 31 32 29 23 18 18 19 21 22 24 27 29 31 33 33 34 34 33 32 32 31 30 29 28 27 27 25 23 22 21 21 21 22 23 24 25 26 27 27 26 24 24 28 32 33 31 30 30 31 32 32 32 31 32 32 33 33 33 33 32 32 31 30 31
23 23 22 23 23 24 25 26 26 26 25 25 26 29 32 33 33 32 33 33 31 30 30 29 27 24 21 20 20 20 20 21 23 26 28 29 30 30 30 30 30 29 29 28 27 26 26 27 28 26 24 22 19 19 21 24 26 26 26 27 28 26 24 25 28 31 33 31 30 31 33 33 31 30 30 31 32 33 34 34 33 33 32 32 31 30
22 22 22 22 22 22 23 23 24 24 23 23 24 27 30 32 32 31 30 30 29 28 27 26 24 22 20 21 22 23 22 22 22 24 26 27 28 28 28 28 28 27 27 26 25 24 24 25 26 28 27 25 21 19 20 23 25 26 27 28 28 27 26 26 29 31 31 31 31 33 35 34 31 29 28 28 29 31 33 34 34 33 33 32 31 31
22 22 22 22 21 21 21 22 22 23 23 22 22 24 28 31 32 31 29 29 28 27 25 25 23 21 19 20 22 23 24 23 24 24 26 27 28 28 28 28 27 26 25 24 23 23 23 23 24 26 27 25 23 22 21 22 24 26 27 28 28 27 26 26 28 30 31 31 32 34 36 34 32 30 29 27 27 28 31 33 34 34 33 32 31 31
23 22 22 22 22 21 21 21 22 23 23 22 21 23 25 28 29 29 29 28 28 27 26 25 24 22 20 20 22 23 23 23 23 23 25 27 28 29 28 29 28 26 24 22 21 20 19 19 21 24 26 25 25 24 24 24 25 25 25 26 27 27 26 26 28 30 32 32 33 35 36 34 31 30 29 27 26 26 28 31 33 34 33 32 32 30
22 22 22 22 22 22 21 21 22 23 24 22 21 22 23 24 25 25 25 25 25 25 25 25 24 23 22 21 22 24 24 25 24 24 25 27 29 29 29 29 29 27 22 18 16 15 14 12 12 15 21 25 26 26 26 27 27 25 23 25 26 27 26 26 28 30 32 33 34 35 35 33 31 29 28 26 25 24 24 27 31 34 34 33 32 31
Wind_Direction
245 249 252 254 255 256 258 260 261 261 263 266 267 267 268 268 268 268 269 268 267 266 265 264 263 262 261 260 259 256 251 244 234 227 224 223 221 217 213 212 210 208 205 204 204 203 201 198 196 196 197 198 197 196 196 198 197 195 194 195 194 190 186 183 181 180 179 178 176 175 177 178 181 183 186 188 191 192 193 194 196 198 199 201 204 211
243 246 248 249 249 249 252 255 256 257 259 261 263 265 267 267 268 268 268 268 268 267 266 265 264 262 260 259 258 255 250 244 235 228 224 224 222 218 213 211 209 206 203 201 201 201 199 195 193 193 195 196 194 193 194 196 195 193 191 191 190 187 182 177 175 174 175 175 174 175 177 179 181 184 187 190 192 193 194 195 197 199 202 206 212 222
239 240 241 243 243 243 245 249 251 252 254 256 258 260 261 263 264 264 265 265 265 266 265 264 263 261 259 257 256 253 249 244 237 231 227 224 222 218 213 210 207 203 200 199 199 198 196 193 191 191 193 193 191 190 192 194 193 191 189 190 190 189 185 181 177 174 174 174 175 177 178 180 182 185 187 190 192 193 194 197 199 202 205 210 217 230
235 234 237 239 239 239 241 243 246 248 250 252 254 256 257 258 259 260 261 262 262 263 263 263 261 259 258 256 255 252 249 244 239 235 230 225 221 217 212 208 204 201 199 198 197 195 193 191 190 190 192 191 189 188 189 190 191 190 190 190 189 189 189 188 186 183 180 179 179 180 182 183 185 187 190 192 194 196 198 200 202 205 209 215 223 234
232 231 234 235 234 236 239 241 243 246 249 251 252 254 255 255 257 258 260 260 261 261 262 262 261 259 257 255 254 252 249 245 241 237 232 225 220 215 210 206 202 199 197 196 194 192 190 189 189 190 191 190 188 187 188 188 189 189 190 190 188 187 187 188 189 189 188 186 186 187 189 191 193 195 196 198 199 200 202 204 206 209 214 221 228 233
229 229 231 230 230 233 238 241 244 246 248 250 252 254 255 256 256 257 258 259 259 260 261 261 260 259 257 255 253 251 249 246 243 239 233 226 219 213 208 203 200 197 195 193 191 188 188 188 188 189 190 189 187 186 187 187 188 188 188 189 188 186 184 184 184 185 187 188 189 191 194 197 200 201 201 202 202 203 204 206 209 214 219 224 227 224
230 228 227 228 231 235 239 243 246 248 248 249 252 255 255 256 256 256 256 257 258 258 259 259 259 258 257 255 253 251 249 247 245 241 234 225 218 211 205 201 197 194 192 190 187 186 187 187 188 189 190 189 188 187 187 188 188 188 186 187 187 187 186 184 184 184 186 188 190 192 194 198 201 202 202 202 203 204 206 209 213 217 221 222 219 213
233 228 225 226 230 236 240 245 248 250 249 249 249 251 252 253 254 254 255 256 256 256 257 257 257 257 255 254 252 250 248 246 245 240 232 223 215 208 202 197 194 191 190 187 185 185 186 187 188 189 190 189 188 188 189 189 190 190 188 186 186 187 188 188 188 189 191 192 194 196 197 199 201 201 201 202 203 206 209 212 215 217 217 214 209 205
234 230 229 230 231 233 238 245 250 251 251 248 246 245 247 249 251 252 253 253 253 254 253 253 254 254 254 253 251 249 247 246 242 235 225 216 209 203 198 193 191 190 188 186 185 186 187 188 189 189 190 190 189 189 190 191 192 192 191 190 188 188 189 191 192 193 195 197 199 200 200 200 200 199 200 201 204 207 210 212 213 211 207 205 203 201
236 233 233 235 237 238 239 245 251 254 252 249 247 245 244 244 246 248 249 249 250 251 251 250 250 250 251 251 249 246 244 242 237 227 216 207 201 196 192 189 188 188 187 186 185 187 188 189 190 190 190 190 190 190 191 192 193 194 195 194 193 192 192 194 195 197 197 199 200 201 200 199 199 199 200 202 205 208 210 210 207 203 200 199 199 197
237 236 236 237 241 244 244 246 250 253 253 250 247 246 244 242 240 239 241 243 246 246 246 245 244 244 244 244 243 239 233 227 220 213 206 199 194 191 188 187 187 187 187 186 187 188 190 191 191 191 191 191 191 191 191 192 193 195 196 197 198 197 197 198 199 201 201 201 202 201 200 200 200 201 202 204 206 208 208 206 203 200 198 197 196 195
237 238 237 236 238 241 243 245 248 249 248 243 240 240 241 239 236 232 231 236 239 237 234 233 234 234 232 231 229 223 214 206 199 194 191 189 187 185 184 184 185 186 186 186 188 191 193 193 193 192 191 191 191 191 191 192 193 195 197 198 199 200 199 200 202 203 203 204 203 203 202 202 202 203 204 206 207 207 207 205 203 200 198 196 194 192
237 237 235 231 232 235 236 237 238 238 236 230 227 230 234 235 232 229 229 233 234 231 224 220 220 221 220 217 212 204 196 190 186 183 181 180 180 180 180 180 181 182 182 183 186 190 192 193 192 191 190 190 190 190 190 191 193 195 197 198 200 200 200 201 202 203 203 203 202 201 201 201 203 204 205 206 207 207 206 206 204 202 199 195 192 189
233 231 227 224 225 229 229 226 223 223 226 226 227 229 232 232 229 226 226 229 231 228 220 214 209 207 206 202 197 192 186 182 179 177 176 177 178 179 178 177 177 178 177 176 178 182 185 186 186 187 188 188 188 188 188 190 192 193 195 197 199 199 199 200 201 202 201 199 198 197 197 198 200 201 203 205 206 206 206 206 205 202 199 196 192 188
226 222 219 220 222 224 224 222 222 225 230 230 230 230 230 229 225 221 219 221 222 218 210 204 200 198 196 191 187 184 181 178 174 172 173 176 178 180 179 176 175 174 174 172 172 174 178 180 181 182 185 185 185 185 186 188 190 192 193 195 196 196 196 197 199 199 198 196 194 193 193 194 196 198 200 203 204 205 206 206 205 203 200 197 195 192
224 218 218 222 226 227 227 225 225 229 232 232 229 226 223 220 218 216 214 213 208 200 191 187 188 192 194 190 185 180 177 175 173 171 171 173 176 179 179 175 171 170 170 170 170 172 175 178 179 181 182 183 183 183 184 186 188 189 190 191 192 192 193 195 196 197 195 193 191 190 190 192 194 196 199 201 202 203 205 206 205 204 202 201 199 197
225 222 223 227 231 232 231 228 228 230 231 230 228 224 220 217 216 214 210 204 196 188 185 186 186 189 196 192 185 180 177 174 172 171 169 170 173 176 178 174 169 166 168 169 171 173 176 178 180 181 181 180 180 181 183 185 186 188 189 189 189 190 191 194 195 196 194 192 191 190 191 192 194 196 198 200 201 203 205 207 207 207 206 206 204 202
228 225 225 228 232 234 232 228 228 229 229 226 224 223 221 219 216 212 205 198 191 188 190 193 195 195 190 192 187 182 178 174 171 169 166 166 169 173 175 174 170 167 167 169 173 176 179 180 181 180 178 177 177 179 182 184 186 187 188 188 188 189 191 193 195 195 194 193 192 192 192 193 195 197 199 201 203 205 207 209 210 211 211 210 210 207
232 229 228 230 234 235 233 229 227 226 224 222 219 217 216 216 213 209 204 199 196 195 195 197 200 201 198 196 189 184 179 175 171 167 163 163 165 168 171 171 168 166 166 169 174 177 180 181 181 179 177 176 176 178 182 184 186 188 189 189 189 190 191 193 194 194 194 193 193 193 193 194 196 198 201 204 207 209 211 212 213 214 214 215 214 210
236 233 231 232 234 236 235 231 228 225 222 220 216 212 209 211 210 207 205 203 202 202 201 201 204 205 201 194 188 184 180 175 170 166 164 162 162 165 168 168 165 164 165 169 174 178 179 180 179 179 177 177 177 180 182 185 187 189 190 190 191 191 192 193 194 194 194 194 194 194 194 196 198 201 205 209 212 214 214 215 215 217 218 218 218 213
239 237 235 235 235 235 236 235 234 231 226 220 213 208 207 207 207 206 205 203 203 203 203 205 207 206 202 192 186 183 180 175 169 164 163 161 161 164 166 167 166 164 164 168 173 177 179 179 179 178 177 177 178 180 182 185 187 189 190 191 192 193 193 194 195 196 197 197 197 196 196 198 201 205 209 213 216 216 216 216 217 219 221 221 220 213
243 242 241 239 237 235 237 239 238 235 230 221 212 207 206 205 204 205 205 203 202 202 205 208 210 208 202 194 188 185 181 178 173 166 160 158 161 164 165 167 167 165 165 168 172 176 178 179 179 178 178 178 179 180 182 184 187 189 190 191 192 193 194 195 196 197 198 200 201 201 201 202 205 208 212 216 218 218 217 217 218 221 223 224 221 212
245 245 245 243 240 239 239 240 240 238 233 224 218 215 214 210 207 206 206 204 203 203 205 206 206 205 201 195 189 184 181 179 176 170 161 159 165 168 166 167 167 166 166 169 172 175 178 179 179 179 178 178 179 180 182 184 186 188 189 191 192 193 194 195 196 197 199 201 203 204 205 205 206 209 212 215 217 218 218 219 220 223 225 225 219 207
247 246 246 245 243 242 241 240 239 237 234 229 226 224 223 219 216 213 210 207 204 202 201 200 197 193 190 188 184 181 180 179 176 172 166 165 168 169 167 166 165 164 166 170 173 175 177 179 179 179 179 179 179 180 181 183 185 186 188 190 191 193 194 196 197 198 200 202 204 205 206 207 207 208 210 213 216 218 219 220 222 225 226 223 214 201
252 249 247 246 246 245 244 241 240 238 236 232 229 225 221 218 215 212 209 204 200 196 192 186 177 169 170 173 177 180 182 180 178 175 171 165 164 166 167 167 164 163 165 170 173 175 176 177 179 179 180 180 180 180 181 182 183 185 187 189 190 192 194 196 197 199 200 202 203 204 205 205 206 207 208 211 214 216 219 221 224 226 225 219 206 194
259 256 253 250 249 248 247 245 243 241 238 235 229 221 214 209 205 201 197 194 191 186 178 170 166 167 168 170 175 181 183 181 179 178 175 165 159 163 167 167 166 163 163 167 171 173 174 175 177 179 179 180 180 180 181 181 182 184 186 188 190 192 194 196 197 198 200 201 202 202 202 203 204 205 207 209 212 215 218 221 222 222 218 208 196 187
262 260 258 256 253 251 250 248 245 243 240 236 230 221 211 202 194 188 184 185 184 180 176 178 178 174 172 174 179 182 183 182 181 180 177 167 160 161 166 167 165 161 159 162 167 171 172 173 175 177 178 178 178 178 180 180 182 183 185 187 189 192 194 195 196 197 199 200 200 201 201 201 202 203 205 208 211 214 216 217 215 211 203 193 185 180
263 261 260 258 256 254 252 250 247 243 240 235 229 220 209 198 189 183 184 186 184 182 183 186 183 175 177 183 183 182 182 183 183 183 179 168 162 162 167 165 163 159 154 154 159 166 169 171 173 174 174 175 175 176 177 179 181 183 185 187 189 191 193 194 195 196 198 199 199 200 200 200 200 202 204 207 209 211 210 207 202 195 186 179 176 175
264 262 259 257 255 253 252 249 246 242 238 233 227 219 211 202 196 193 193 190 185 184 189 192 189 184 180 179 178 179 182 185 185 184 179 168 162 163 165 162 160 157 151 146 147 154 163 168 170 171 169 171 172 173 175 177 181 183 185 187 188 190 192 193 194 195 196 197 198 198 197 197 198 200 202 205 206 204 199 194 188 182 175 173 172 172
262 260 258 255 252 250 248 246 242 238 234 229 224 218 213 209 205 202 199 193 187 186 192 193 190 182 174 169 168 176 187 189 187 182 177 168 162 162 162 160 159 158 154 147 138 139 158 168 170 169 168 169 171 172 173 176 179 182 183 185 187 189 191 192 193 194 194 195 195 195 194 194 195 197 200 201 200 196 190 186 180 175 171 172 173 174
259 258 255 252 249 246 243 240 237 232 227 223 218 215 213 211 209 206 201 195 191 190 192 191 186 179 172 169 166 179 196 194 187 181 177 169 163 162 162 161 162 163 161 157 150 141 158 172 175 173 170 170 171 173 175 177 179 182 182 183 184 187 189 190 190 191 191 192 191 191 190 191 192 194 196 196 193 188 184 182 177 173 172 174 175 176
257 256 253 250 246 242 237 233 229 225 219 215 212 211 211 210 208 205 202 199 196 194 193 190 185 181 180 182 185 187 191 190 185 181 178 171 164 164 166 165 165 166 167 165 164 160 152 167 178 178 175 174 174 176 178 179 181 182 183 183 183 185 187 187 187 186 186 186 187 187 187 188 189 191 192 190 186 183 182 181 178 175 175 174 174 175
255 254 251 247 242 236 231 226 221 217 212 209 207 207 208 208 207 206 205 203 200 197 193 190 186 184 186 189 191 191 188 185 183 182 179 173 165 163 167 167 167 168 170 170 168 164 158 158 167 174 178 179 179 179 180 182 183 184 185 184 184 184 184 184 183 182 181 181 182 183 184 185 187 188 188 185 182 181 183 182 180 178 178 175 173 174
251 249 247 242 236 229 224 219 215 211 208 206 205 205 206 206 206 206 206 205 203 200 197 193 189 186 187 190 192 190 185 184 184 183 181 177 170 165 168 169 170 170 171 172 169 161 153 154 158 165 176 182 184 184 184 184 185 186 187 187 186 184 183 182 181 180 178 178 178 179 181 183 184 185 185 183 181 182 184 184 182 181 181 178 175 174
245 243 240 235 229 222 217 213 210 207 206 204 204 204 204 205 205 206 206 206 204 202 200 199 197 193 190 190 190 188 184 185 185 184 184 182 177 172 171 173 175 174 173 173 168 156 144 151 158 162 168 178 186 189 188 187 187 187 188 190 189 187 185 183 182 180 178 177 177 178 179 180 181 182 183 182 181 183 186 186 185 184 184 182 179 177
238 236 233 229 223 217 213 209 206 205 204 204 204 204 204 205 205 206 206 206 205 203 201 202 202 201 198 196 194 192 188 187 185 185 185 186 182 177 174 177 179 178 176 175 172 164 154 153 159 163 164 169 181 190 192 191 189 188 189 190 191 189 187 185 183 181 179 178 178 178 179 179 180 181 182 182 182 184 187 188 187 187 187 185 182 181
232 230 228 224 220 215 211 208 205 204 203 203 203 204 204 204 205 206 206 206 205 203 201 202 204 204 203 202 202 201 196 191 188 186 187 188 186 182 177 179 181 180 178 176 174 168 161 155 157 163 168 173 179 185 189 191 190 190 190 191 191 190 189 187 185 183 181 180 179 179 180 180 180 181 181 181 181 183 187 189 190 190 190 188 186 184
228 226 224 222 219 215 211 209 207 205 205 204 203 203 204 204 204 205 205 205 204 202 201 202 204 205 205 205 207 208 203 196 190 188 188 189 188 185 180 179 180 181 182 180 176 170 162 158 160 167 177 183 184 183 183 186 189 191 192 191 191 191 190 188 187 185 183 182 181 180 180 181 181 181 180 179 179 182 186 190 192 192 192 192 190 188
227 224 223 220 217 215 212 210 209 208 207 206 205 204 203 203 203 203 204 204 203 202 201 202 204 206 207 207 209 210 208 201 195 192 191 191 190 187 183 179 179 181 183 182 179 174 170 170 172 175 178 182 182 182 183 185 187 189 190 190 191 191 191 190 188 187 185 183 181 180 181 181 182 182 180 179 179 181 185 188 191 192 192 193 192 191
231 228 225 222 219 217 215 213 212 211 209 207 205 203 201 199 199 199 200 201 201 201 201 202 204 205 206 207 208 210 209 205 199 195 193 192 191 190 187 184 182 182 183 182 181 179 178 179 180 181 180 180 179 179 180 185 187 187 185 185 189 193 192 191 189 188 187 185 182 181 181 182 183 183 182 181 181 183 185 187 189 189 189 190 191 191
235 231 227 224 221 220 218 216 215 212 209 205 202 199 196 194 193 192 194 195 196 197 198 199 200 201 202 203 205 207 207 204 200 196 194 193 192 192 191 190 187 184 182 182 182 182 182 182 182 182 181 180 178 178 179 184 186 185 182 183 188 191 191 190 190 189 188 187 185 184 183 183 183 184 183 184 185 186 187 188 188 187 188 190 190 190
237 234 230 226 222 220 218 217 214 211 207 203 198 195 194 192 190 188 187 187 189 191 194 194 193 191 191 193 196 198 198 197 196 195 194 194 193 192 192 192 190 187 183 181 181 182 183 183 181 179 178 176 174 174 177 182 185 185 185 186 186 185 186 189 191 190 189 188 187 186 184 183 183 184 185 186 187 188 189 190 190 189 189 190 191 192
239 237 233 228 224 220 217 214 210 207 203 199 196 195 194 193 191 189 186 185 185 187 189 189 187 184 179 177 180 184 187 189 191 193 193 193 193 193 193 192 191 188 184 180 178 179 182 182 181 179 178 175 173 172 172 176 181 185 188 187 182 177 179 188 191 191 189 189 188 187 186 184 184 185 186 188 189 190 190 192 193 193 192 192 192 193
242 238 233 229 224 218 213 209 206 203 199 196 195 195 195 193 191 189 186 185 185 185 184 184 183 179 173 169 169 173 177 182 186 189 192 193 193 193 194 193 192 190 187 182 178 176 177 178 179 179 178 176 174 172 172 174 178 183 187 187 185 183 184 187 188 188 188 189 189 188 187 186 185 185 186 189 190 191 192 194 196 197 197 197 196 195
242 237 232 226 219 212 207 204 202 200 197 196 195 195 194 193 191 189 186 184 183 182 181 179 176 171 165 166 167 167 169 174 180 185 188 191 193 194 195 194 193 191 189 187 184 180 176 175 175 175 175 175 174 174 173 175 178 182 186 188 189 190 191 188 186 186 186 187 188 188 187 187 186 186 187 189 190 192 194 196 197 199 200 200 200 199
239 234 228 221 213 207 204 202 200 198 197 196 196 195 194 192 191 189 187 185 182 180 180 178 175 172 170 169 167 164 164 167 172 178 183 187 190 192 194 194 193 191 189 188 187 186 183 181 177 172 169 171 174 177 178 178 179 181 185 187 189 191 191 188 187 187 187 186 186 187 187 187 186 186 187 189 191 193 195 198 200 201 201 201 202 202
234 228 222 216 210 206 204 202 199 197 197 197 196 195 194 192 190 188 187 185 182 179 178 177 177 176 173 171 169 166 164 164 167 171 176 181 184 187 190 191 192 191 189 187 187 187 188 187 183 178 172 170 172 177 181 182 181 182 183 186 187 188 188 188 188 188 188 187 186 186 186 185 185 186 188 189 190 193 196 199 201 203 204 204 203 204
230 225 219 213 208 205 203 200 198 197 197 197 196 195 194 192 190 187 186 184 182 179 176 176 177 176 173 172 172 171 169 166 166 168 171 175 178 180 182 184 184 185 185 185 184 184 186 187 187 186 183 179 177 177 180 182 183 184 184 185 186 187 188 188 188 188 187 187 187 186 185 184 184 185 186 187 189 192 195 198 201 204 206 206 205 205
229 223 218 212 208 205 203 200 198 197 198 196 195 194 194 193 191 188 186 184 182 180 178 178 177 175 171 172 173 173 170 168 167 167 169 171 172 173 174 175 175 175 175 176 177 178 180 183 186 189 189 188 184 181 179 181 184 185 185 185 186 187 188 188 187 187 187 188 188 188 186 186 186 186 184 184 186 190 194 197 200 203 206 207 206 206
228 223 218 212 209 206 204 200 198 198 199 197 194 192 192 192 191 190 188 185 183 183 183 181 178 174 172 171 172 171 170 167 166 167 169 170 170 169 168 168 167 165 162 162 164 166 169 174 182 188 191 192 190 186 182 180 181 183 184 185 187 188 187 186 186 187 187 188 189 189 188 187 187 187 185 185 186 189 192 196 199 202 204 205 206 206
228 221 216 212 209 207 205 201 200 200 200 198 194 190 189 190 190 190 188 186 185 186 186 184 181 177 174 171 171 172 171 169 168 168 170 171 170 168 166 166 164 160 155 153 153 154 157 162 174 188 195 195 195 193 188 182 179 179 181 185 187 187 187 186 186 187 187 188 188 188 188 187 187 187 187 186 186 187 191 195 199 201 202 203 204 204